Tracking 19831 objects as of 24-Aug-2019
HD Live streaming from Space Station
objects crossing your sky now

COSMOS 1510

Track COSMOS 1510 now!
10-day predictions
COSMOS 1510 is classified as:


NORAD ID: 14521
Int'l Code: 1983-115A
Perigee: 1,486.7 km
Apogee: 1,531.0 km
Inclination: 73.6 °
Period: 116.0 minutes
Semi major axis: 7879 km
RCS: 10.4266 m2 (large)
Launch date: November 24, 1983
Source: Commonwealth of Independent States (former USSR) (CIS)
Launch site: PLESETSK MISSILE AND SPACE COMPLEX (PKMTR)
aabbcc
Your satellite tracking list
Your tracking list is empty




NASA's NSSDC Master Catalog

Two Line Element Set (TLE):
1 14521U 83115A   19235.81185125 -.00000026  00000-0 -61531-4 0  9992
2 14521  73.6162  46.5425 0028129 297.5191 167.0834 12.41161216620419
Source of the keplerian elements: AFSPC